• In Czech Republic
  • List of Countries
  • For 7 days
  • Water Temperature
  • Satellite Maps
  • Weather Map
  • Weather Widgets
  • user-avatar
    Login

    Hourly Weather Ballycastle

    Today, 18 December, Monday

    Time Temperature Precipitation Wind Pressure Humidity
    00:00 +5°C° 0 mm 4 mps 764 mmHg 86%
    01:00 +4°C° 0 mm 4 mps 764 mmHg 87%
    02:00 +4°C° 0 mm 4 mps 765 mmHg 88%
    03:00 +4°C° 0 mm 3 mps 765 mmHg 88%
    04:00 +4°C° 0 mm 3 mps 765 mmHg 89%
    05:00 +4°C° 0 mm 3 mps 766 mmHg 90%
    06:00 +3°C° 0 mm 3 mps 766 mmHg 91%
    07:00 +3°C° 0 mm 3 mps 766 mmHg 91%
    08:00 +3°C° 0 mm 3 mps 767 mmHg 91%
    09:00 +3°C° 0 mm 3 mps 767 mmHg 91%
    10:00 +4°C° 0 mm 4 mps 767 mmHg 88%
    11:00 +5°C° 0 mm 4 mps 767 mmHg 86%
    12:00 +6°C° 0 mm 4 mps 767 mmHg 83%
    13:00 +6°C° 0 mm 4 mps 767 mmHg 84%
    14:00 +6°C° 0 mm 4 mps 767 mmHg 85%
    15:00 +6°C° 0 mm 4 mps 767 mmHg 85%
    16:00 +5°C° 0 mm 4 mps 767 mmHg 86%
    17:00 +5°C° 0 mm 5 mps 767 mmHg 88%
    18:00 +5°C° 0 mm 5 mps 767 mmHg 89%
    19:00 +5°C° 0 mm 5 mps 768 mmHg 90%
    20:00 +5°C° 0 mm 5 mps 768 mmHg 91%
    21:00 +5°C° 0 mm 5 mps 768 mmHg 92%
    22:00 +5°C° 0 mm 5 mps 768 mmHg 93%
    23:00 +6°C° 0 mm 5 mps 768 mmHg 94%

    Tomorrow, 19 December, Tuesday

    Time Temperature Precipitation Wind Pressure Humidity
    00:00 +6°C° 0 mm 5 mps 768 mmHg 95%
    01:00 +6°C° 0 mm 5 mps 768 mmHg 95%
    02:00 +7°C° 0 mm 5 mps 768 mmHg 95%
    03:00 +7°C° 0 mm 5 mps 767 mmHg 95%
    04:00 +7°C° 0 mm 6 mps 767 mmHg 95%
    05:00 +8°C° 0 mm 6 mps 767 mmHg 95%
    06:00 +8°C° 0 mm 6 mps 767 mmHg 96%
    07:00 +8°C° 0 mm 6 mps 767 mmHg 95%
    08:00 +9°C° 0 mm 6 mps 768 mmHg 95%
    09:00 +9°C° 0 mm 6 mps 768 mmHg 95%
    10:00 +9°C° 0 mm 6 mps 768 mmHg 94%
    11:00 +10°C° 0 mm 7 mps 768 mmHg 93%
    12:00 +11°C° 0 mm 7 mps 768 mmHg 92%
    13:00 +11°C° 0 mm 7 mps 767 mmHg 91%
    14:00 +11°C° 0 mm 7 mps 767 mmHg 91%
    15:00 +11°C° 0 mm 7 mps 767 mmHg 91%
    16:00 +11°C° 0 mm 7 mps 767 mmHg 91%
    17:00 +11°C° 0 mm 7 mps 767 mmHg 91%
    18:00 +11°C° 0 mm 7 mps 767 mmHg 91%
    19:00 +11°C° 0 mm 7 mps 766 mmHg 91%
    20:00 +11°C° 0 mm 7 mps 766 mmHg 91%
    21:00 +11°C° 0 mm 7 mps 766 mmHg 91%
    22:00 +11°C° 0.1 mm 7 mps 766 mmHg 90%
    23:00 +11°C° 0.1 mm 7 mps 766 mmHg 90%

    Day after tomorrow, 20 December, Wednesday

    Time Temperature Precipitation Wind Pressure Humidity
    00:00 +11°C° 0.1 mm 7 mps 766 mmHg 90%
    01:00 +11°C° 0.2 mm 6 mps 767 mmHg 91%
    02:00 +11°C° 0.2 mm 6 mps 767 mmHg 91%
    03:00 +12°C° 0.2 mm 5 mps 767 mmHg 92%
    04:00 +10°C° 0.1 mm 5 mps 767 mmHg 93%
    05:00 +11°C° 0.1 mm 4 mps 767 mmHg 94%
    06:00 +11°C° 0.1 mm 3 mps 767 mmHg 95%
    07:00 +11°C° 0.5 mm 3 mps 767 mmHg 96%
    08:00 +12°C° 0.5 mm 2 mps 768 mmHg 97%
    09:00 +10°C° 0.5 mm 2 mps 768 mmHg 97%
    10:00 +10°C° 0.3 mm 2 mps 768 mmHg 97%
    11:00 +10°C° 0.3 mm 2 mps 769 mmHg 96%
    12:00 +11°C° 0.3 mm 1 mps 769 mmHg 96%
    13:00 +10°C° 0 mm 2 mps 769 mmHg 95%
    14:00 +10°C° 0 mm 2 mps 769 mmHg 95%
    15:00 +10°C° 0 mm 2 mps 769 mmHg 94%
    16:00 +9°C° 0 mm 2 mps 769 mmHg 94%
    17:00 +9°C° 0 mm 2 mps 770 mmHg 93%
    18:00 +8°C° 0 mm 2 mps 770 mmHg 93%
    19:00 +9°C° 0 mm 1 mps 770 mmHg 92%
    20:00 +9°C° 0 mm 1 mps 770 mmHg 92%
    21:00 +9°C° 0 mm 1 mps 771 mmHg 91%
    22:00 +9°C° 0 mm 1 mps 771 mmHg 89%
    23:00 +9°C° 0 mm 1 mps 771 mmHg 88%

    21 December, Thursday

    Time Temperature Precipitation Wind Pressure Humidity
    00:00 +9°C° 0 mm 1 mps 770 mmHg 86%
    01:00 +9°C° 0.3 mm 1 mps 770 mmHg 87%
    02:00 +9°C° 0.3 mm 1 mps 770 mmHg 87%
    03:00 +9°C° 0.3 mm 1 mps 770 mmHg 88%
    04:00 +8°C° 0.5 mm 2 mps 770 mmHg 88%
    05:00 +7°C° 0.5 mm 2 mps 770 mmHg 89%
    06:00 +7°C° 0.5 mm 2 mps 770 mmHg 90%
    07:00 +7°C° 0.2 mm 2 mps 770 mmHg 90%
    08:00 +7°C° 0.2 mm 2 mps 771 mmHg 90%
    09:00 +7°C° 0.2 mm 3 mps 771 mmHg 90%
    10:00 +7°C° 0 mm 3 mps 772 mmHg 90%
    11:00 +6°C° 0 mm 4 mps 772 mmHg 89%
    12:00 +7°C° 0 mm 4 mps 773 mmHg 89%
    13:00 +7°C° 0 mm 4 mps 773 mmHg 88%
    14:00 +7°C° 0 mm 4 mps 773 mmHg 87%
    15:00 +7°C° 0 mm 4 mps 774 mmHg 86%
    16:00 +6°C° 0 mm 4 mps 774 mmHg 86%
    17:00 +7°C° 0 mm 3 mps 775 mmHg 85%
    18:00 +5°C° 0 mm 3 mps 775 mmHg 85%
    19:00 +6°C° 0 mm 2 mps 776 mmHg 86%
    20:00 +5°C° 0 mm 2 mps 776 mmHg 86%
    21:00 +6°C° 0 mm 1 mps 777 mmHg 86%
    22:00 +6°C° 0 mm 1 mps 777 mmHg 87%
    23:00 +5°C° 0 mm 2 mps 777 mmHg 88%

    22 December, Friday

    Time Temperature Precipitation Wind Pressure Humidity
    00:00 +4°C° 0 mm 2 mps 777 mmHg 89%
    01:00 +4°C° 0 mm 2 mps 776 mmHg 89%
    02:00 +4°C° 0 mm 2 mps 776 mmHg 90%
    03:00 +4°C° 0 mm 2 mps 776 mmHg 91%
    04:00 +4°C° 0 mm 2 mps 776 mmHg 91%
    05:00 +3°C° 0 mm 3 mps 776 mmHg 92%
    06:00 +3°C° 0 mm 3 mps 775 mmHg 92%
    07:00 +3°C° 0 mm 3 mps 775 mmHg 93%
    08:00 +4°C° 0 mm 3 mps 775 mmHg 95%
    09:00 +4°C° 0 mm 4 mps 775 mmHg 96%
    10:00 +5°C° 0 mm 4 mps 775 mmHg 96%
    11:00 +6°C° 0 mm 4 mps 775 mmHg 96%
    12:00 +6°C° 0 mm 4 mps 774 mmHg 96%
    13:00 +8°C° 0 mm 3 mps 774 mmHg 96%
    14:00 +8°C° 0 mm 3 mps 774 mmHg 96%
    15:00 +9°C° 0 mm 3 mps 773 mmHg 96%
    16:00 +9°C° 0.1 mm 3 mps 773 mmHg 96%
    17:00 +9°C° 0.1 mm 3 mps 773 mmHg 96%
    18:00 +9°C° 0.1 mm 3 mps 773 mmHg 96%
    19:00 +8°C° 0 mm 3 mps 773 mmHg 96%
    20:00 +8°C° 0 mm 3 mps 773 mmHg 96%
    21:00 +8°C° 0 mm 3 mps 773 mmHg 96%
    22:00 +8°C° 0 mm 3 mps 772 mmHg 96%
    23:00 +8°C° 0 mm 3 mps 772 mmHg 96%

    23 December, Saturday

    Time Temperature Precipitation Wind Pressure Humidity
    00:00 +8°C° 0 mm 3 mps 772 mmHg 96%
    01:00 +8°C° 0 mm 3 mps 772 mmHg 96%
    02:00 +8°C° 0 mm 3 mps 772 mmHg 96%
    03:00 +8°C° 0 mm 3 mps 772 mmHg 96%
    04:00 +7°C° 0 mm 4 mps 772 mmHg 96%
    05:00 +7°C° 0 mm 4 mps 771 mmHg 96%
    06:00 +7°C° 0 mm 4 mps 771 mmHg 95%
    07:00 +7°C° 0 mm 4 mps 771 mmHg 95%
    08:00 +7°C° 0 mm 4 mps 771 mmHg 95%
    09:00 +7°C° 0 mm 4 mps 771 mmHg 95%
    10:00 +8°C° 0 mm 4 mps 771 mmHg 95%
    11:00 +8°C° 0 mm 4 mps 770 mmHg 94%
    12:00 +8°C° 0 mm 4 mps 770 mmHg 93%
    13:00 +8°C° 0 mm 4 mps 769 mmHg 94%
    14:00 +8°C° 0 mm 5 mps 769 mmHg 94%
    15:00 +9°C° 0 mm 5 mps 768 mmHg 94%
    16:00 +9°C° 0 mm 5 mps 768 mmHg 94%
    17:00 +9°C° 0 mm 6 mps 767 mmHg 95%
    18:00 +9°C° 0 mm 6 mps 767 mmHg 95%
    19:00 +9°C° 0 mm 6 mps 766 mmHg 95%
    20:00 +9°C° 0 mm 7 mps 766 mmHg 94%
    21:00 +10°C° 0 mm 7 mps 765 mmHg 93%
    22:00 +10°C° 0 mm 7 mps 764 mmHg 93%
    23:00 +9°C° 0 mm 8 mps 763 mmHg 92%
    Show more